Location: Newark
(30.0333°N, 31.2167°E)
Time: 08:05:39
(UTC+00:00)

Hubble Space Telescope - Visible Passes

Search period start: 16 December 2019 00:00
Search period end: 26 December 2019 00:00
Orbit: 536 x 540 km, 28.5° (Epoch: 15 December)

Date Brightness Start Highest point End Pass type
(mag) Time Alt. Az. Time Alt. Az. Time Alt. Az.
16 Dec 1.3 03:19:07 25° SW 03:21:14 53° SSE 03:25:16 10° E visible
17 Dec 1.1 03:09:25 40° SW 03:10:37 60° S 03:14:42 10° E visible
18 Dec 0.9 02:59:36 61° SSW 03:00:00 65° S 03:04:07 10° E visible
19 Dec 1.0 02:49:44 66° SE 02:49:44 66° SE 02:53:32 10° E visible
20 Dec 1.6 02:39:48 48° ESE 02:39:48 48° ESE 02:42:56 10° E visible
20 Dec 1.3 04:15:52 10° W 04:19:54 53° SSW 04:23:57 10° ESE visible
21 Dec 2.3 02:29:51 35° ESE 02:29:51 35° ESE 02:32:21 10° E visible
21 Dec 1.5 04:05:18 10° W 04:09:17 46° SSW 04:13:15 10° ESE visible
22 Dec 2.9 02:19:54 25° ESE 02:19:54 25° ESE 02:21:44 10° E visible
22 Dec 1.7 03:55:14 13° W 03:58:39 39° SSW 04:02:31 10° SE visible
23 Dec 3.4 02:09:55 18° ESE 02:09:55 18° ESE 02:11:07 10° ESE visible
23 Dec 1.9 03:45:16 16° WSW 03:48:00 33° SSW 03:51:44 10° SE visible
24 Dec 3.8 01:59:58 13° ESE 01:59:58 13° ESE 02:00:29 10° ESE visible
24 Dec 2.2 03:35:18 18° WSW 03:37:20 28° SSW 03:40:54 10° SE visible
25 Dec 2.4 03:25:21 19° SW 03:26:41 23° SSW 03:29:57 10° SSE visible
